Regional Weather Roundup
Issued by NWS

Home | Current Version | Previous Version | Graphics & Text | Print | Product List | Glossary On
Versions: 1 2 3 4 5 6 7 8 9 10 11 12 13 14 15 16 17 18 19 20 21 22 23 24 25 26 27 28 29 30 31 32 33 34 35 36 37 38 39 40 41 42 43 44 45 46 47 48 49 50
000
ASUS43 KDTX 291601
RWRMI
MICHIGAN HOURLY REGIONAL WEATHER ROUNDUP
NATIONAL WEATHER SERVICE DETROIT/PONTIAC MI
1200 PM EDT FRI AUG 29 2014

NOTE: "FAIR" INDICATES FEW OR NO CLOUDS BELOW 12,000 FEET WITH NO
SIGNIFICANT WEATHER AND/OR OBSTRUCTION TO VISIBILITY.

MIZ047>049-052>055-059>063-066>070-074>076-081>083-291700-
SOUTHEAST LOWER MICHIGAN

CITY           SKY/WX    TMP DP  RH WIND       PRES   REMARKS
ADRIAN         CLOUDY    67  56  67 S7        30.13S
ALMA           CLOUDY    68  56  66 S6        30.09S
ANN ARBOR      CLOUDY    70  53  54 SE9       30.12F
BAD AXE        CLOUDY    68  59  73 S13       30.12S
CARO           CLOUDY    68  59  73 S7        30.11S
DETROIT CITY   PTSUNNY   72  54  53 S14       30.14S
DETROIT        CLOUDY    70  56  61 SE7       30.14S
FLINT          PTSUNNY   71  56  58 S13       30.12S
GROSSE ILE     PTSUNNY   70  57  64 SE9       30.13S
HILLSDALE      CLOUDY    68  57  68 S5        30.12S
HOWELL         CLOUDY    67  56  67 SE9       30.11F

CITY           SKY/WX    TMP DP  RH WIND       PRES   REMARKS
JACKSON        CLOUDY    69  58  67 SE9       30.11S
LAMBERTVILLE   CLOUDY    70  55  60 CALM      30.13S
LANSING        CLOUDY    68  52  56 SE13      30.10S
LAPEER         FAIR      69  54  57 S10       30.13S
MASON          CLOUDY    67  56  68 SE6       30.11S
MONROE         CLOUDY    70  57  64 SE8       30.11S
MT. CLEMENS    PTSUNNY   70  55  59 SE14      30.13S
PONTIAC        CLOUDY    69  54  58 SE8       30.13S
PORT HOPE        N/A     67  57  70 SE7       30.11S
PORT HURON     PTSUNNY   72  61  68 S9G17     30.14F
TRI CITIES     CLOUDY    71  58  63 S10       30.10F
TROY           CLOUDY    74  51  45 SE8       30.14F
SAGINAW HB     PTSUNNY   72  57  60 S12G18    30.09F
$$
MIZ043>046-050>051-056>058-064>065-071>073-077>080-291700-
SOUTHWEST LOWER MICHIGAN

CITY           SKY/WX    TMP DP  RH WIND       PRES   REMARKS
BATTLE CREEK   CLOUDY    68  58  70 SE10      30.09S
BENTON HARBOR  PTSUNNY   71  63  75 SE8       30.03S
BIG RAPIDS     CLOUDY    65  60  83 SE12G17   30.05S
COLDWATER      CLOUDY    70  59  69 SE8       30.09S
FREMONT        PTSUNNY   67  56  69 SE8       30.03S
HOLLAND        CLOUDY    70  63  78 SE12      30.04S
GRAND RAPIDS   CLOUDY    68  60  75 SE10      30.06F
IONIA          DRIZZLE   67  56  67 SE8       30.07S
KALAMAZOO      CLOUDY    69  59  70 S6        30.07S
LUDINGTON      PTSUNNY   70  64  79 S7        30.01S
MARSHALL       CLOUDY    68  58  69 SE6       30.09S
MOUNT PLEASANT CLOUDY    68  57  67 SE8G16    30.07S
MUSKEGON       CLOUDY    69  60  73 SE12      30.02S
SOUTH HAVEN    PTSUNNY   71  64  77 S7        30.03S
$$
MIZ016>042-291700-
NORTHERN LOWER MICHIGAN

CITY           SKY/WX    TMP DP  RH WIND       PRES   REMARKS
ALPENA         LGT RAIN  62  58  86 S10       30.11S
BEAVER ISLAND  RAIN      61  60  97 SE12G20   30.00F
CADILLAC       CLOUDY    62  59  90 S8        30.05S
CHARLEVOIX     CLOUDY    60  60  99 SE9       30.05S
FRANKFORT      CLOUDY    67  62  83 S5        30.00S
GAYLORD        LGT RAIN  58  56  93 SE10      30.06F FOG
GRAYLING       HVY RAIN  59  58  98 SE3       30.09R
HARBOR SPRINGS RAIN      60  58  92 E5        30.04F
HOUGHTON LAKE  CLOUDY    62  57  83 S14       30.08S
MANISTEE       CLOUDY    66  59  77 SE7       30.01S
OSCODA         CLOUDY    65  58  78 SE6       30.10S
PELLSTON       LGT RAIN  59  58  96 SE10      30.04F FOG
TRAVERSE CITY  LGT RAIN  62  59  90 CALM      30.00F
$$
MIZ007>008-015-291700-
EASTERN UPPER MICHIGAN

CITY           SKY/WX    TMP DP  RH WIND       PRES   REMARKS
KINROSS        CLOUDY    61  61 100 SE10      30.06F
MACKINAC ISLAN LGT RAIN  58  58  99 SE9       30.05F
NEWBERRY       CLOUDY    60  58  94 SE10      29.99F
S. S. MARIE    LGT RAIN  61  56  83 SE12      30.06F
$$
MIZ004>006-011>014-085-291700-
CENTRAL UPPER MICHIGAN

CITY           SKY/WX    TMP DP  RH WIND       PRES   REMARKS
MANISTIQUE     CLOUDY    62  61  97 SE12G20   29.98S
ESCANABA       CLOUDY    63  59  88 S10       29.95S
MENOMINEE      CLOUDY    66  64  94 S8        29.91F
SAWYER-GWINN   RAIN      59  59 100 S13       29.94F
$$
MIZ001>003-009>011-084-291700-
WESTERN UPPER MICHIGAN

CITY           SKY/WX    TMP DP  RH WIND       PRES   REMARKS
IRON MOUNTAIN  CLOUDY    61  60  97 SE8       29.92S FOG
HOUGHTON       LGT RAIN  60  57  89 E9        29.89F FOG
COPPER HARBOR    N/A     61  57  87 S9        29.90S
$$

ABBREVIATIONS USED IN REMARKS
   TC - TEMPERATURE IN CELSIUS
  WCI - WIND CHILL INDEX
   HX - HEAT INDEX
  VSB - VISIBILITY




USA.gov is the U.S. government's official web portal to all federal, state and local government web resources and services.